Location: Days
(41.3591°N, 106.7339°W)
Time: 18:51:30
(UTC+00:00)

RS-15 - Pass Details

Date: 09 July 2022
Orbit: 1881 x 2163 km, 64.8° (Epoch: 15 August)

Event Time Altitude Azimuth Distance (km) Brightness Sun altitude
Rises 05:42:11 0° 326° (NW) 5,698 11.8 -23.0°
Reaches altitude 10° 05:45:40 10° 325° (NW) 4,687 11.1 -23.2°
Maximum altitude 05:58:00 80° 242° (WSW) 2,148 8.1 -24.0°
Enters shadow 06:04:09 36° 161° (SSE) 2,974 8.4 -24.4°
